Miscellaneous Local Product
Issued by NWS North Platte, NE

Home | Current Version | Previous Version | Text Only | Print | Product List | Glossary On
Versions: 1 2 3 4 5 6 7 8 9 10 11 12 13 14 15 16 17 18 19 20 21 22 23 24 25 26 27 28 29 30 31 32 33 34 35 36 37 38 39 40 41 42 43 44 45 46 47 48 49 50
000
AXUS43 KLBF 160110
MISLBF


WESTERN AND NORTH CENTRAL NEBRASKA HOURLY WEATHER ROUNDUP
NATIONAL WEATHER SERVICE NORTH PLATTE NE
700 PM CST SUN JAN 15 2017

NOTE: "FAIR" INDICATES FEW OR NO CLOUDS BELOW 12,000 FEET WITH NO
SIGNIFICANT WEATHER AND/OR OBSTRUCTIONS TO VISIBILITY.

NOTE: STATIONS NOT REPORTING VARIABLES SUCH AS SKY/WEATHER OR
PRESSURE ARE PROVIDED BY RAWS AND APRS NETWORKS AND ARE NOT UNDER
NATIONAL WEATHER SERVICE QUALITY CONTROL.

...OBSERVATIONS IN AND NEAR THE EASTERN PANHANDLE OF NEBRASKA...

CITY           SKY/WX    TMP DP  RH WIND       PRES   REMARKS
PINE RIDGE     CLOUDY    21  18  88 CALM      30.01S
CHADRON        CLOUDY    22  19  89 SW7       30.03R WCI  13
ALLIANCE       CLOUDY    31  23  72 CALM      29.98F
SIDNEY         CLOUDY    29  26  89 CALM      29.98F
CRESCENT LAKE    N/A     30  25  80 S3          N/A
$$

...OBSERVATIONS IN NORTHERN NEBRASKA AND FAR SOUTHERN SOUTH DAKOTA...

CITY           SKY/WX    TMP DP  RH WIND       PRES   REMARKS
WINNER         FAIR      27  21  78 NE5       30.07S WCI  22
VALENTINE      CLOUDY    34  23  64 CALM      30.04S
THEDFORD       CLOUDY    35  26  69 S3        30.05S
AINSWORTH      CLOUDY    32  27  80 S5        30.05S WCI  27
O`NEILL        CLOUDY    32  23  70 S5        30.10S WCI  27
ORD            FRZ RAIN  31  28  89 SE3       30.09S FOG
BROKEN BOW     FRZ RAIN  31  29  92 CALM      30.06F FOG
VALENTINE NWR    N/A     33  24  70 CALM        N/A
BUTTE            N/A     30  22  72 SE6         N/A  WCI  24
HALSEY           N/A     34  24  65 CALM        N/A
SARGENT          N/A     31  21  67 CALM        N/A
CHAMBERS         N/A     32  21  65 CALM        N/A
EWING            N/A     32  25  76 CALM        N/A
$$

...OBSERVATIONS IN SOUTHWEST NEBRASKA AND FAR NORTHEAST COLORADO...

CITY           SKY/WX    TMP DP  RH WIND       PRES   REMARKS
HOLYOKE        CLOUDY    34  32  93 NE3       30.00F FOG
IMPERIAL       FRZ RAIN  31  28  89 NE5       30.01F FOG     WCI  26
OGALLALA       MIX PCPN  32  29  90 CALM      30.02F
NORTH PLATTE   FRZ RAIN  31  29  92 E3        30.05F FOG
MCCOOK         MIX PCPN  30  30 100 E6        30.05S FOG     WCI  24
LEXINGTON      MIX PCPN  31  29  92 E3        30.07S
STAPLETON        N/A     30  27  90 CALM        N/A
GOTHENBURG       N/A     32  29  90 CALM        N/A
CALLAWAY         N/A     29  27  92 CALM        N/A
$$

...OBSERVATIONS IN CENTRAL LINCOLN COUNTY AREA...

CITY           SKY/WX    TMP DP  RH WIND       PRES   REMARKS
N.P. AIRPORT   FRZ RAIN  31  29  92 E3        30.05F FOG
N.P. DOWNTOWN    N/A     31  29  93 CALM        N/A
N.P. SOUTHEAST   N/A     30  28  90 CALM        N/A
N.P. HILLCREST   N/A     30  28  92 CALM        N/A
$$

...SOME OBSERVATIONS FROM AROUND THE REGION...

CITY           SKY/WX    TMP DP  RH WIND       PRES   REMARKS
LARAMIE        CLOUDY    22  19  89 CALM      29.95R
CHEYENNE       CLOUDY    34  21  59 N6        29.95S WCI  29
DENVER         LGT SNOW  32  26  78 NW5       29.95S WCI  27
AKRON          CLOUDY    29  26  89 NE3       29.95F
SCOTTSBLUFF    CLOUDY    31  25  78 N5        29.99S WCI  26
RAPID CITY     CLOUDY    20  12  71 CALM      30.00R
BISMARCK       CLOUDY     3  -4  72 CALM      30.05F
PIERRE         CLOUDY    10   5  80 E5        30.09R WCI   2
SIOUX FALLS    CLOUDY    29  19  66 S10       30.16S WCI  20
OMAHA          FRZ RAIN  32  28  85 SE6       30.19F FOG     WCI  26
GRAND ISLAND   CLOUDY    30  30 100 SE6       30.12S WCI  24
KANSAS CITY    CLOUDY    32  29  88 E12       30.17S WCI  23
WICHITA        CLOUDY    34  33  96 NE10      30.05F WCI  26
OKLAHOMA CITY  DRIZZLE   40  40 100 E6        29.94S FOG
DALLAS         TSTM      65  64  97 VRB5      29.86R FOG
AMARILLO       CLOUDY    32  31  96 N12       29.89F FOG     WCI  23
DODGE CITY     FRZ RAIN  31  30  96 NE7       30.03R FOG     WCI  24
HAYS           FLURRIES  31  30  96 E8        30.07S WCI  23
GOODLAND       CLOUDY    30  29  96 E5        29.98S WCI  25
$$




USA.gov is the U.S. government's official web portal to all federal, state and local government web resources and services.